Yakima, WA

7:28 PM PST on December 10, 2016 (GMT -0800)
Yakima Air Term-McAllister

Weather History for KYKM - November, 2013

Change the Weather History Date:

Wednesday, November 6, 2013

  Actual Average Record
Temperature  
Mean Temperature 36 °F 41 °F  
Max Temperature 46 °F 53 °F 71 °F (2006)
Min Temperature 26 °F 29 °F 11 °F (2003)
Degree Days  
Heating Degree Days 29 24  
Month to date heating degree days 139 139  
Since 1 July heating degree days 755 843  
Cooling Degree Days 0 0  
Month to date cooling degree days 0 0  
Year to date cooling degree days 970 472  
Moisture  
Dew Point 33 °F    
Average Humidity 86    
Maximum Humidity 96    
Minimum Humidity 76    
Precipitation  
Precipitation 0.10 in 0.03 in 0.41 in (1980)
Month to date precipitation 0.27 0.17  
Year to date precipitation 5.06 5.84  
Snow  
Snow 0.00 in 0.00 in 0.10 in (1973)
Month to date snowfall 0.0 0.1  
Year to date snowfall 1.1 8.8  
Since 1 July snowfall 0.0 0.2  
Snow Depth 0.00 in    
Sea Level Pressure  
Sea Level Pressure 30.32 in    
Wind  
Wind Speed 2 mph (West)    
Max Wind Speed 7 mph    
Max Gust Speed 8 mph    
Visibility 5 miles    
Events Rain    
T = Trace of Precipitation, MM = Missing Value Source: NWS Daily Summary

Daily Weather History Graph

Daily Weather History Graph

Search for Another Location

Airport or City:

Trip Planner

Search our weather history database for the weather conditions in past years. The results will help you decide how hot, cold, wet, or windy it might be!

Date:

Astronomy

Nov. 06, 2013 Rise Set
Actual Time 6:51 AM PST 4:39 PM PST
Civil Twilight 6:19 AM PST 5:11 PM PST
Nautical Twilight 5:43 AM PST 5:47 PM PST
Astronomical Twilight 5:08 AM PST 6:22 PM PST
Moon 10:16 AM PST (11/6) 7:44 PM PST (11/6)
Length of Visible Light 10h 51m
Length of Day
9h 47m
Waxing Crescent, 14% of the Moon is Illuminated
Nov 6
Waxing Crescent
Nov 9
First Quarter
Nov 17
Full
Nov 25
Last Quarter
Dec 2
New

Hourly Weather History & Observations

Time (PST) Temp. Windchill Dew Point Humidity Pressure Visibility Wind Dir Wind Speed Gust Speed Precip Events Conditions
12:25 AM 28.4 °F 24.6 °F 26.6 °F 93% 30.24 in 4.0 mi WNW 3.5 mph - N/A   Mostly Cloudy
12:43 AM 28.4 °F 24.6 °F 26.6 °F 93% 30.24 in 4.0 mi West 3.5 mph - N/A   Scattered Clouds
12:53 AM 28.0 °F 24.2 °F 25.0 °F 88% 30.28 in 4.0 mi WNW 3.5 mph - N/A   Partly Cloudy
1:53 AM 27.0 °F 23.0 °F 25.0 °F 92% 30.30 in 4.0 mi WSW 3.5 mph - N/A   Clear
2:53 AM 28.9 °F - 27.0 °F 92% 30.30 in 6.0 mi Calm Calm - N/A   Scattered Clouds
3:05 AM 28.4 °F - 24.8 °F 86% 30.28 in 5.0 mi Calm Calm - N/A   Mostly Cloudy
3:53 AM 28.9 °F - 26.1 °F 89% 30.32 in 5.0 mi Calm Calm - N/A   Mostly Cloudy
4:45 AM 30.2 °F - 28.4 °F 93% 30.30 in 5.0 mi Calm Calm - N/A   Overcast
4:53 AM 30.0 °F - 28.0 °F 92% 30.33 in 5.0 mi Calm Calm - N/A   Overcast
5:53 AM 30.9 °F 27.5 °F 28.0 °F 89% 30.35 in 4.0 mi West 3.5 mph - N/A   Overcast
6:53 AM 30.9 °F - 28.9 °F 92% 30.36 in 4.0 mi Calm Calm - N/A   Mostly Cloudy
7:12 AM 30.2 °F - 28.4 °F 93% 30.33 in 2.5 mi Calm Calm - N/A   Mostly Cloudy
7:41 AM 32.0 °F - 28.4 °F 87% 30.34 in 2.5 mi Calm Calm - N/A   Scattered Clouds
7:53 AM 33.1 °F - 30.9 °F 92% 30.38 in 2.0 mi Calm Calm - N/A   Mostly Cloudy
8:18 AM 33.8 °F - 30.2 °F 87% 30.35 in 3.0 mi Calm Calm - N/A   Overcast
8:25 AM 33.8 °F - 30.2 °F 87% 30.35 in 2.5 mi Calm Calm - N/A   Overcast
8:51 AM 33.8 °F - 32.0 °F 93% 30.36 in 3.0 mi Calm Calm - N/A   Overcast
8:53 AM 34.0 °F - 32.0 °F 92% 30.40 in 3.0 mi Calm Calm - N/A   Overcast
9:45 AM 37.4 °F - 33.8 °F 87% 30.37 in 5.0 mi Calm Calm - N/A   Overcast
9:53 AM 37.0 °F - 33.1 °F 86% 30.40 in 5.0 mi Calm Calm - N/A   Overcast
10:46 AM 37.4 °F - 35.6 °F 93% 30.37 in 3.0 mi Calm Calm - N/A   Overcast
10:53 AM 37.9 °F - 35.1 °F 89% 30.40 in 4.0 mi Calm Calm - N/A   Overcast
11:53 AM 41.0 °F - 36.0 °F 82% 30.39 in 5.0 mi Calm Calm - N/A   Haze
12:38 PM 44.6 °F - 37.4 °F 76% 30.34 in 5.0 mi Calm Calm - N/A   Haze
12:53 PM 44.1 °F - 37.0 °F 76% 30.36 in 6.0 mi Calm Calm - N/A   Haze
1:53 PM 45.0 °F - 37.0 °F 74% 30.35 in 7.0 mi Calm Calm - N/A   Mostly Cloudy
2:53 PM 45.0 °F - 37.0 °F 74% 30.34 in 7.0 mi Calm Calm - N/A   Overcast
3:53 PM 45.0 °F - 37.0 °F 74% 30.34 in 7.0 mi Calm Calm - N/A   Overcast
4:53 PM 45.0 °F - 37.9 °F 76% 30.33 in 7.0 mi Calm Calm - N/A   Overcast
5:53 PM 45.0 °F 43.5 °F 37.0 °F 74% 30.33 in 8.0 mi ENE 3.5 mph - N/A   Overcast
6:53 PM 44.1 °F 42.5 °F 37.0 °F 76% 30.33 in 9.0 mi East 3.5 mph - N/A   Overcast
7:53 PM 43.0 °F 40.3 °F 37.0 °F 80% 30.32 in 10.0 mi NNE 4.6 mph - 0.00 in   Overcast
8:07 PM 42.8 °F - 37.4 °F 81% 30.29 in 8.0 mi Calm Calm - 0.00 in Rain Light Rain
8:53 PM 42.1 °F - 37.9 °F 85% 30.32 in 5.0 mi Calm Calm - 0.01 in Rain Light Rain
9:39 PM 41.0 °F 38.0 °F 37.4 °F 87% 30.28 in 5.0 mi WSW 4.6 mph - 0.01 in Rain Light Rain
9:53 PM 41.0 °F 38.0 °F 37.9 °F 89% 30.30 in 5.0 mi WSW 4.6 mph - 0.02 in Rain Light Rain
10:04 PM 41.0 °F 38.0 °F 37.4 °F 87% 30.27 in 4.0 mi WSW 4.6 mph - 0.01 in Rain Light Rain
10:24 PM 41.0 °F 38.0 °F 37.4 °F 87% 30.26 in 4.0 mi WSW 4.6 mph - 0.03 in Rain Light Rain
10:50 PM 41.0 °F 37.1 °F 37.4 °F 87% 30.25 in 5.0 mi WSW 5.8 mph - 0.05 in Rain Light Rain
10:53 PM 41.0 °F 37.1 °F 37.9 °F 89% 30.28 in 5.0 mi WSW 5.8 mph - 0.05 in Rain Light Rain
11:32 PM 41.0 °F 38.0 °F 37.4 °F 87% 30.23 in 5.0 mi West 4.6 mph - 0.02 in Rain Light Rain
11:53 PM 41.0 °F 38.0 °F 37.9 °F 89% 30.25 in 6.0 mi WSW 4.6 mph - 0.02 in Rain Light Rain